カタログに戻る

FENGYUN 1C DEB

LostPO
NORAD 35130·DEBRIS·🇨🇳 China

打ち上げ May 10, 1999 から Taiyuan Satellite Launch Center

Loading…

次のパス (今後24時間)

TLE

古いSource: Space-Track

元期: Jan 30, 2026, 07:36 UTC

1 35130U 99025DLJ 26030.31682944  .00295058  00000-0  14655-1 0  9996
2 35130  99.0301 248.2207 0012739 320.5236  39.5063 15.16203993656455

AllMySatでFENGYUN 1C DEBをリアルタイム追跡

Download on the App Store